This is the latest recevied weather packets stored in our database for station/object WX8ASH-13. If no packets are shown the sender has not sent any weather packets the latest 10 day(s).
| Time | Temp. | Humidity | Pressure | Rain* | Wind** | Luminosity | Snow |
|---|---|---|---|---|---|---|---|
| 1777585842 | 11.11° C | 62% | 1015.2 hPa | 0 mm | - | - | - |
| 1777585543 | 11.11° C | 61% | 1015.2 hPa | 0 mm | - | - | - |
| 1777585243 | 11.11° C | 58% | 1015.2 hPa | 0 mm | - | - | - |
| 1777584946 | 11.11° C | 60% | 1015.1 hPa | 0 mm | - | - | - |
| 1777584646 | 11.11° C | 61% | 1015.1 hPa | 0 mm | - | - | - |
| 1777584346 | 10.56° C | 63% | 1015.1 hPa | 0 mm | - | - | - |
| 1777584045 | 10.56° C | 61% | 1015.1 hPa | 0 mm | - | - | - |
| 1777583745 | 10.56° C | 60% | 1015.1 hPa | 0 mm | - | - | - |
| 1777583444 | 10.56° C | 61% | 1015.1 hPa | 0 mm | - | - | - |
| 1777583144 | 10.56° C | 60% | 1015.2 hPa | 0 mm | - | - | - |
| 1777582844 | 10.56° C | 65% | 1015.2 hPa | 0 mm | - | - | - |
| 1777582544 | 10.56° C | 63% | 1015.3 hPa | 0 mm | - | - | - |
| 1777582242 | 10.56° C | 67% | 1015.3 hPa | 0 mm | - | - | - |
| 1777581941 | 10.56° C | 65% | 1015.3 hPa | 0 mm | - | - | - |
| 1777581644 | 10.56° C | 66% | 1015.2 hPa | 0 mm | - | - | - |
| 1777581340 | 10.56° C | 67% | 1015.3 hPa | 0 mm | - | - | - |
| 1777581039 | 11.11° C | 66% | 1015.2 hPa | 0 mm | - | - | - |
| 1777580739 | 11.11° C | 65% | 1015.2 hPa | 0 mm | - | - | - |
| 1777580439 | 11.67° C | 65% | 1015.2 hPa | 0 mm | - | - | - |
| 1777580141 | 11.67° C | 64% | 1015.2 hPa | 0 mm | - | - | - |
| 1777579841 | 11.67° C | 65% | 1015 hPa | 0 mm | - | - | - |
| 1777579538 | 11.11° C | 67% | 1015.1 hPa | 0 mm | - | - | - |
| 1777579237 | 11.11° C | 65% | 1015.2 hPa | 0 mm | - | - | - |
| 1777578937 | 10.56° C | 69% | 1015.3 hPa | 0 mm | - | - | - |
| 1777578637 | 10.56° C | 71% | 1015.3 hPa | 0 mm | - | - | - |
* Rain latest hour (hover to see other rain measurements)
** Current wind speed in m/s (hover to see current wind gust speed)